Meteopurmerend
purmerend
Purmerend - Baaienwijk



My webcam  My webcam


Onweer radar Meer informatie blitzortung!


Regen radar Meer informatie rain snow radar


Bezoek onze andere website:

CandyAppleRed WebdesignWebdesign Purmerend Candy Apple Red

MeteopurmerendBlog

Template documentation
and downloads



We konden geen weer-waarchuwingen ophalen. Ga rechtstreeks naar de Meteoalarm site : www.meteoalarm.eu en controleer daar .

15 daagse weersverwachting Ostend (BE)

  • Overzicht
  • Per uur
  • 15 dagen
  • Extra
  • Vergelijk
  • Kaarten
  • Dagkaart
  • Meer »
  • Info
  • Statistieken
  • Directe link
    Temp 6h Neerslag Wind  
 06:11     21:39    Daglengte: 15:28 Vandaag
14:00
18°
 
8
20:00
18°
 
7
 06:13     21:38    Daglengte: 15:25 Morgen
02:00
14°
 
4
08:00
15°
 
4
14:00
20°
 
8
20:00
18°
 
9
 06:14     21:36    Daglengte: 15:22 Zaterdag 31 Jul
02:00
16°
 
6
08:00
16°
1.9 mm
7
14:00
19°
1.4 mm
7
20:00
19°
0.7 mm
5
 06:16     21:34    Daglengte: 15:18 Zondag 01 Aug
02:00
15°
 
5
08:00
15°
 
4
Locatie info
Region: Flanders
Latitude: 51.2155°N
Longitude: 2.9270°E
6 masl
Temp/Neerslag /Baro Onweer/Dauwpunt
    Temp Baro 1h Neerslag Dauwpunt Wind UV Bewolking  
 06:11     21:39    Daglengte: 15:28 Vandaag
12:00
17°
1011.6 hPa
47%
10.3°
8
Windvlaag: 7 m/s
18%
13:00
17°
1011.6 hPa
54%
11.2°
8
Windvlaag: 7.1 m/s
15%
14:00
18°
1011.8 hPa
55%
11.5°
8
Windvlaag: 7 m/s
10%
15:00
19°
1011.7 hPa
26%
11.3°
8
Windvlaag: 6.5 m/s
5%
16:00
19°
1011.6 hPa
16%
10.9°
8
Windvlaag: 5.7 m/s
7%
17:00
19°
1011.4 hPa
12%
10.5°
8
Windvlaag: 5.7 m/s
6%
18:00
19°
1011.6 hPa
11%
10.0°
8
Windvlaag: 6.3 m/s
9%
19:00
19°
1011.5 hPa
11%
9.9°
8
Windvlaag: 5.8 m/s
13%
20:00
18°
1011.4 hPa
11%
9.6°
7
Windvlaag: 6.2 m/s
17%
21:00
17°
1011.4 hPa
11%
10.0°
6
Windvlaag: 6.2 m/s
27%
22:00
16°
1011.5 hPa
11%
10.0°
5
Windvlaag: 6.8 m/s
40%
23:00
15°
1011.4 hPa
11%
10.4°
4
Windvlaag: 6.3 m/s
26%
 06:13     21:38    Daglengte: 15:25 Morgen
00:00
14°
1011.1 hPa
11%
10.7°
4
Windvlaag: 5.8 m/s
8%
01:00
14°
1010.9 hPa
11%
11.1°
4
Windvlaag: 5.5 m/s
10%
02:00
14°
1010.4 hPa
11%
11.6°
4
Windvlaag: 5.5 m/s
19%
03:00
14°
1010.1 hPa
11%
12.0°
3
Windvlaag: 5.3 m/s
38%
04:00
14°
1009.6 hPa
17%
12.2°
3
Windvlaag: 4.9 m/s
32%
05:00
14°
1009.0 hPa
58%
12.5°
3
Windvlaag: 4.8 m/s
86%
06:00
14°
1008.5 hPa
69%
12.4°
3
Windvlaag: 4.8 m/s
85%
07:00
14°
1007.9 hPa
67%
12.4°
3
Windvlaag: 4.5 m/s
86%
08:00
15°
1007.4 hPa
71%
12.5°
4
Windvlaag: 5.5 m/s
86%
09:00
16°
1006.9 hPa
70%
13.0°
4
Windvlaag: 6.8 m/s
86%
10:00
16°
1006.5 hPa
68%
13.7°
5
Windvlaag: 7.7 m/s
77%
11:00
17°
1006.1 hPa
66%
14.3°
5
Windvlaag: 8.8 m/s
64%
12:00
18°
1005.9 hPa
60%
15.5°
6
Windvlaag: 9.6 m/s
34%
13:00
19°
1005.6 hPa
70%
16.7°
7
Windvlaag: 10.9 m/s
41%
14:00
20°
1005.3 hPa
25%
17.3°
8
Windvlaag: 11.6 m/s
68%
15:00
19°
1005.0 hPa
24%
16.3°
8
Windvlaag: 11.3 m/s
16%
16:00
20°
1004.8 hPa
23%
15.9°
9
Windvlaag: 15 m/s
12%
17:00
19°
1004.5 hPa
30%
15.2°
10
Windvlaag: 15.7 m/s
64%
18:00
18°
1004.4 hPa
30%
14.5°
10
Windvlaag: 16 m/s
14%
19:00
18°
1004.4 hPa
33%
14.1°
10
Windvlaag: 11.2 m/s
38%
20:00
18°
1004.7 hPa
69%
13.9°
9
Windvlaag: 9.1 m/s
12%
21:00
17°
1005.1 hPa
33%
13.7°
8
Windvlaag: 6.4 m/s
23%
22:00
17°
1005.7 hPa
69%
12.8°
8
Windvlaag: 5 m/s
61%
23:00
16°
1006.4 hPa
69%
12.7°
7
Windvlaag: 1.5 m/s
29%
 06:14     21:36    Daglengte: 15:22 Zaterdag 31 Jul
00:00
16°
1006.9 hPa
68%
13.4°
7
Windvlaag: 1.7 m/s
15%
01:00
16°
1007.2 hPa
32%
13.6°
6
Windvlaag: 1.6 m/s
21%
02:00
16°
1007.3 hPa
24%
13.7°
6
Windvlaag: 4.2 m/s
15%
03:00
16°
1007.3 hPa
27%
13.5°
5
Windvlaag: 7 m/s
28%
04:00
16°
1007.3 hPa
68%
13.6°
5
Windvlaag: 3.7 m/s
16%
05:00
15°
1006.5 hPa 0.6 mm
43%
13.2°
7
Windvlaag: 3.5 m/s
56%
06:00
15°
1006.7 hPa 0.6 mm
42%
13.2°
7
Windvlaag: 3.2 m/s
58%
07:00
15°
1007.1 hPa 0.6 mm
43%
13.2°
7
Windvlaag: 3.7 m/s
55%
08:00
16°
1007.4 hPa
85%
13.1°
7
Windvlaag: 4.4 m/s
50%
09:00
16°
1007.7 hPa
85%
13.5°
7
Windvlaag: 4.2 m/s
49%
10:00
17°
1008.1 hPa
85%
13.9°
7
Windvlaag: 3.5 m/s
59%
11:00
17°
1008.4 hPa
85%
14.0°
6
Windvlaag: 3.1 m/s
46%
12:00
18°
1008.6 hPa 0.7 mm
85%
13.9°
6
Windvlaag: 3.3 m/s
51%
13:00
19°
1008.5 hPa 0.7 mm
87%
12.8°
7
Windvlaag: 2.6 m/s
45%
14:00
19°
1008.7 hPa
88%
13.2°
7
Windvlaag: 2.5 m/s
64%
15:00
19°
1008.7 hPa
93%
13.3°
7
Windvlaag: 2.5 m/s
77%
16:00
19°
1008.8 hPa
88%
13.8°
7
Windvlaag: 1.7 m/s
72%
17:00
19°
1008.6 hPa 0.7 mm
90%
13.9°
7
Windvlaag: 2.2 m/s
74%
18:00
19°
1008.5 hPa
92%
14.3°
7
Windvlaag: 2.3 m/s
66%
19:00
19°
1008.3 hPa
90%
15.2°
7
Windvlaag: 2.6 m/s
68%
20:00
19°
1008.3 hPa
94%
13.9°
5
Windvlaag: 2.7 m/s
31%
21:00
18°
1008.4 hPa
45%
13.7°
5
Windvlaag: 2.8 m/s
25%
22:00
17°
1008.6 hPa
35%
14.1°
4
Windvlaag: 4.2 m/s
30%
23:00
16°
1008.7 hPa
40%
13.8°
4
Windvlaag: 4.8 m/s
22%
 06:16     21:34    Daglengte: 15:18 Zondag 01 Aug
00:00
15°
1008.8 hPa
40%
13.9°
5
Windvlaag: 5.3 m/s
37%
01:00
15°
1008.8 hPa
38%
14.2°
4
Windvlaag: 6.1 m/s
50%
02:00
15°
1008.4 hPa
38%
14.3°
5
Windvlaag: 6.1 m/s
38%
03:00
15°
1007.9 hPa
40%
14.1°
4
Windvlaag: 8.6 m/s
20%
04:00
15°
1007.8 hPa
42%
14.5°
4
Windvlaag: 9 m/s
20%
05:00
15°
1007.5 hPa
42%
14.5°
4
Windvlaag: 7.8 m/s
19%
06:00
15°
1007.6 hPa
42%
14.6°
4
Windvlaag: 7.9 m/s
63%
07:00
15°
1007.6 hPa
43%
14.6°
4
Windvlaag: 8.1 m/s
67%
08:00
15°
1007.9 hPa
42%
15.1°
4
Windvlaag: 8.4 m/s
69%
09:00
15°
1007.6 hPa 2.4 mm
100%
15.1°
6
Windvlaag: 9.1 m/s
100%
10:00
16°
1007.8 hPa 2.4 mm
100%
15.1°
6
Windvlaag: 6.7 m/s
100%
11:00
16°
1008.1 hPa 2.4 mm
100%
15.0°
5
Windvlaag: 6.6 m/s
100%
Temp/Neerslag /Baro Onweer/Dauwpunt
    Temp Baro Neerslag Dauwpunt Wind Bewolking  
 06:11     21:39    Daglengte: 15:28 Vandaag
14:00
18°
1011.8 hPa   11.5°
8
10%
17:00
19°
1011.4 hPa   10.5°
8
6%
20:00
18°
1011.4 hPa   9.6°
7
17%
23:00
15°
1011.4 hPa   10.4°
4
26%
 06:13     21:38    Daglengte: 15:25 Morgen
02:00
14°
1010.4 hPa   11.6°
4
19%
05:00
14°
1009.0 hPa   12.5°
3
86%
08:00
15°
1007.4 hPa   12.5°
4
86%
11:00
17°
1006.1 hPa   14.3°
5
64%
14:00
20°
1005.3 hPa   17.3°
8
68%
17:00
19°
1004.5 hPa   15.2°
10
64%
20:00
18°
1004.7 hPa   13.9°
9
12%
23:00
16°
1006.4 hPa   12.7°
7
29%
 06:14     21:36    Daglengte: 15:22 Zaterdag 31 Jul
02:00
16°
1007.3 hPa   13.7°
6
15%
05:00
15°
1006.5 hPa 0.6 mm 13.2°
7
56%
08:00
16°
1007.4 hPa 1.3 mm 13.1°
7
50%
11:00
17°
1008.4 hPa   14.0°
6
46%
14:00
19°
1008.7 hPa 1.4 mm 13.2°
7
64%
17:00
19°
1008.6 hPa 0.7 mm 13.9°
7
74%
20:00
19°
1008.3 hPa   13.9°
5
31%
23:00
16°
1008.7 hPa   13.8°
4
22%
 06:16     21:34    Daglengte: 15:18 Zondag 01 Aug
02:00
15°
1008.4 hPa   14.3°
5
38%
05:00
15°
1007.5 hPa   14.5°
4
19%
08:00
15°
1007.9 hPa   15.1°
4
69%
11:00
16°
1008.1 hPa 7.1 mm 15.0°
5
100%
14:00
19°
1008.1 hPa 7.2 mm 15.3°
6
95%
17:00
18°
1010.8 hPa 11.5 mm 14.6°
6
0%
20:00
18°
1010.9 hPa 12.7 mm 14.0°
3
0%
23:00
16°
1012.0 hPa 13.0 mm 13.1°
1
0%
 06:17     21:33    Daglengte: 15:16 Maandag 02 Aug
02:00
16°
1012.2 hPa 13.2 mm 12.9°
1
0%
05:00
15°
1012.1 hPa 14.7 mm 13.6°
2
1%
08:00
15°
1012.7 hPa 16.1 mm 13.3°
2
1%
11:00
17°
1013.1 hPa 17.2 mm 13.6°
1
1%
14:00
17°
1013.3 hPa 18.8 mm 14.4°
3
1%
17:00
18°
1013.7 hPa 19.4 mm 13.9°
5
0%
20:00
17°
1014.2 hPa 19.5 mm 13.0°
5
0%
23:00
16°
1015.3 hPa 19.5 mm 11.1°
4
0%
 06:19     21:31    Daglengte: 15:12 Dinsdag 03 Aug
02:00
16°
1015.5 hPa 19.5 mm 10.5°
3
0%
05:00
16°
1015.5 hPa 19.5 mm 10.8°
3
1%
08:00
16°
1016.0 hPa 19.7 mm 11.6°
2
1%
11:00
17°
1016.5 hPa 20.2 mm 11.9°
3
1%
14:00
18°
1016.4 hPa 20.4 mm 12.0°
4
1%
17:00
17°
1016.2 hPa 20.5 mm 12.2°
5
0%
20:00
17°
1016.2 hPa 20.5 mm 11.3°
4
0%
23:00
15°
1017.2 hPa 20.5 mm 10.5°
3
0%
 06:20     21:29    Daglengte: 15:09 Woensdag 04 Aug
02:00
15°
1017.3 hPa 20.5 mm 10.5°
3
0%
05:00
14°
1016.9 hPa 20.5 mm 10.1°
1
0%
08:00
15°
1018.0 hPa 20.5 mm 10.9°
0
0%
11:00
17°
1018.4 hPa 20.5 mm 11.2°
1
0%
14:00
18°
1018.3 hPa 20.5 mm 11.1°
3
0%
17:00
18°
1017.9 hPa 20.5 mm 10.3°
3
1%
20:00
18°
1017.7 hPa 20.5 mm 10.7°
1
1%
23:00
16°
1018.0 hPa 20.5 mm 8.9°
1
1%
 06:22     21:28    Daglengte: 15:06 Donderdag 05 Aug
02:00
15°
1018.0 hPa 20.5 mm 9.6°
2
1%
05:00
14°
1017.1 hPa 20.5 mm 10.3°
3
1%
08:00
15°
1017.2 hPa 20.5 mm 11.2°
4
0%
11:00
18°
1017.2 hPa   11.0°
3
0%
14:00
19°
1016.5 hPa 40.9 mm 12.1°
3
0%
20:00
18°
1014.8 hPa 40.9 mm 12.6°
2
0%
 06:23     21:26    Daglengte: 15:03 Vrijdag 06 Aug
02:00
16°
1014.0 hPa 40.9 mm 11.4°
1
1%
08:00
16°
1013.0 hPa 40.9 mm 11.6°
2
1%
14:00
20°
1012.1 hPa 41.5 mm 13.3°
1
1%
20:00
18°
1010.7 hPa 49.4 mm 15.2°
3
1%
 06:25     21:24    Daglengte: 14:59 Zaterdag 07 Aug
02:00
16°
1009.5 hPa 54.4 mm 14.4°
5
1%
08:00
16°
1006.5 hPa 57.3 mm 14.3°
6
1%
14:00
18°
1006.0 hPa 59.0 mm 14.1°
7
1%
20:00
18°
1006.2 hPa 69.2 mm 12.9°
9
1%
 06:26     21:22    Daglengte: 14:56 Zondag 08 Aug
02:00
14°
1007.8 hPa 69.5 mm 12.4°
7
0%
08:00
16°
1011.8 hPa 0.5 mm 12.7°
5
61%
14:00
19°
1012.3 hPa 0.8 mm 13.5°
5
62%
20:00
18°
1012.6 hPa 0.4 mm 13.7°
5
53%
 06:28     21:20    Daglengte: 14:52 Maandag 09 Aug
02:00
16°
1013.9 hPa 0.3 mm 13.0°
4
62%
08:00
16°
1014.6 hPa 0.6 mm 13.2°
4
57%
14:00
19°
1016.3 hPa 0.6 mm 14.0°
5
57%
20:00
19°
1016.5 hPa 0.5 mm 14.1°
4
42%
 06:29     21:19    Daglengte: 14:50 Dinsdag 10 Aug
02:00
16°
1018.0 hPa 0.4 mm 13.3°
4
33%
08:00
16°
1018.1 hPa 0.3 mm 13.3°
4
39%
14:00
19°
1018.7 hPa 0.4 mm 14.1°
5
45%
20:00
18°
1018.0 hPa 0.4 mm 14.0°
4
42%
 06:31     21:17    Daglengte: 14:46 Woensdag 11 Aug
02:00
16°
1018.5 hPa 0.4 mm 13.1°
4
40%
08:00
16°
1018.1 hPa 0.8 mm 13.5°
4
44%
14:00
20°
1018.4 hPa 0.4 mm 14.3°
4
42%
20:00
19°
1017.4 hPa 0.1 mm 14.4°
3
38%
 06:32     21:15    Daglengte: 14:43 Donderdag 12 Aug
02:00
17°
1017.8 hPa 0.3 mm 13.5°
2
44%
08:00
16°
1017.3 hPa 0.8 mm 13.8°
2
58%
14:00
19°
1017.2 hPa 1.2 mm 14.7°
3
65%
20:00
18°
1016.9 hPa 1.1 mm 14.2°
2
61%
 06:34     21:13    Daglengte: 14:39 Vrijdag 13 Aug
02:00
16°
1017.4 hPa 0.6 mm 13.0°
2
50%
08:00
16°
1017.3 hPa 0.2 mm 13.2°
2
50%
  CAPE Lifted Index Hail Supercell Tornado SRH 3km CL BTM PRES CL TOP PRES Swiss DWD icon SMHI TS
 06:11     21:39    Daglengte: 15:28 Vandaag
12:00 72 J/kg 7.6 K 0 % 0 % 0 % 0 m²/s² 0 0 11.32 1
13:00 52 J/kg 7.7 K 0 % 0 % 0 % 0 m²/s² 0 0 11.06 1
14:00 47 J/kg 7.4 K 0 % 0 % 0 % 0 m²/s² 0 0 10.34 2
15:00 38 J/kg 6.8 K 0 % 0 % 0 % 0 m²/s² 0 0 9.5 2
16:00 17 J/kg 6.4 K 0 % 0 % 0 % 0 m²/s² 0 0 8.95 2
17:00 3 J/kg 6.6 K 0 % 0 % 0 % 0 m²/s² 0 0 8.82 2
18:00 0 J/kg 6.9 K 0 % 0 % 0 % 0 m²/s² 0 0 8.55 2
19:00 0 J/kg 7.0 K 0 % 0 % 0 % 0 m²/s² 0 0 8.08 1
20:00 0 J/kg 7.2 K 0 % 0 % 0 % 0 m²/s² 0 0 8.13 1
21:00 0 J/kg 7.5 K 0 % 0 % 0 % 0 m²/s² 0 0 8.64 3
22:00 0 J/kg 8.0 K 0 % 0 % 0 % 0 m²/s² 0 0 9.35 3
23:00 0 J/kg 7.9 K 0 % 0 % 0 % 0 m²/s² 0 0 9.22 2
 06:13     21:38    Daglengte: 15:25 Morgen
00:00 0 J/kg 8.2 K 0 % 0 % 0 % 0 m²/s² 0 0 9.55 2
01:00 0 J/kg 8.8 K 0 % 0 % 0 % 0 m²/s² 0 0 10.06 2
02:00 0 J/kg 6.9 K 0 % 0 % 0 % 0 m²/s² 0 0 7.89 2
03:00 0 J/kg 4.9 K 0 % 0 % 0 % 0 m²/s² 0 0 5.8 3
04:00 0 J/kg 4.7 K 0 % 0 % 0 % 0 m²/s² 0 0 5.18 3
05:00 0 J/kg 4.4 K 0 % 0 % 0 % 0 m²/s² 0 0 4.91 3
06:00 0 J/kg 3.8 K 0 % 0 % 0 % 0 m²/s² 0 0 4.19 3
07:00 0 J/kg 3.6 K 0 % 0 % 0 % 0 m²/s² 0 0 4.17 3
08:00 0 J/kg 3.3 K 0 % 0 % 0 % 0 m²/s² 0 0 3.72 3
09:00 0 J/kg 2.3 K 0 % 0 % 0 % 0 m²/s² 0 0 2.72 3
10:00 0 J/kg 3.4 K 0 % 0 % 0 % 0 m²/s² 0 0 3.79 3
11:00 0 J/kg 3.6 K 0 % 0 % 0 % 0 m²/s² 0 0 4.65 3
12:00 0 J/kg 1.1 K 0 % 0 % 0 % 0 m²/s² 0 0 2.39 3
13:00 37 J/kg 1.1 K 0 % 0 % 0 % 0 m²/s² 0 0 4.76 3
14:00 204 J/kg -0.3 K 0 % 0 % 0 % 0 m²/s² 0 0 5.19 3
15:00 73 J/kg 1.2 K 0 % 0 % 0 % 0 m²/s² 0 0 4.38 2
16:00 43 J/kg 2.7 K 0 % 0 % 0 % 0 m²/s² 0 0 6.54 2
17:00 40 J/kg 2.5 K 0 % 0 % 0 % 0 m²/s² 0 0 5.14 3
18:00 98 J/kg 1.2 K 0 % 0 % 0 % 0 m²/s² 0 0 3.9 2
19:00 60 J/kg 1.6 K 0 % 0 % 0 % 0 m²/s² 0 0 3.88 2
20:00 30 J/kg 2.0 K 0 % 0 % 0 % 0 m²/s² 0 0 6.38 3
21:00 48 J/kg 1.7 K 0 % 0 % 0 % 0 m²/s² 0 0 5.15 2
22:00 61 J/kg 1.0 K 0 % 0 % 0 % 0 m²/s² 0 0 3.25 3
23:00 32 J/kg 1.1 K 0 % 0 % 0 % 0 m²/s² 0 0 3.08 3
 06:14     21:36    Daglengte: 15:22 Zaterdag 31 Jul
00:00 49 J/kg 0.2 K 0 % 0 % 0 % 0 m²/s² 0 0 2.12 3
01:00 119 J/kg 0.2 K 0 % 0 % 0 % 0 m²/s² 0 0 1.7 2
02:00 82 J/kg 0.7 K 0 % 0 % 0 % 0 m²/s² 0 0 2.44 2
03:00 68 J/kg 1.0 K 0 % 0 % 0 % 0 m²/s² 0 0 2.8 2
04:00 77 J/kg 1.3 K 0 % 0 % 0 % 0 m²/s² 0 0 2.92 2
05:00 76 J/kg 1.0 K 0 % 0 % 0 % 0 m²/s² 0 0 2.5 2
06:00 58 J/kg 0.9 K 0 % 0 % 0 % 0 m²/s² 0 0 2.13 2
07:00 60 J/kg 0.9 K 0 % 0 % 0 % 0 m²/s² 0 0 2.01 2
08:00 41 J/kg 1.1 K 0 % 0 % 0 % 0 m²/s² 0 0 2.33 1
09:00 48 J/kg 1.0 K 0 % 0 % 0 % 0 m²/s² 0 0 2.08 2
10:00 61 J/kg 0.8 K 0 % 0 % 0 % 0 m²/s² 0 0 1.67 2
11:00 98 J/kg 0.5 K 0 % 0 % 0 % 0 m²/s² 0 0 1.01 3
12:00 120 J/kg 0.1 K 0 % 0 % 0 % 0 m²/s² 0 0 0.52 3
13:00 102 J/kg 0.3 K 0 % 0 % 0 % 0 m²/s² 0 0 0.81 3
14:00 227 J/kg -0.6 K 0 % 0 % 0 % 0 m²/s² 0 0 0 3
15:00 307 J/kg -0.9 K 0 % 0 % 0 % 0 m²/s² 0 0 -0.21 3
16:00 430 J/kg -1.4 K 0 % 0 % 0 % 0 m²/s² 0 0 -0.56 3
17:00 432 J/kg -1.6 K 0 % 0 % 0 % 0 m²/s² 0 0 -0.64 3
18:00 349 J/kg -1.5 K 0 % 0 % 0 % 0 m²/s² 0 0 -0.57 3
19:00 275 J/kg -1.4 K 0 % 0 % 0 % 0 m²/s² 0 0 -0.83 3
20:00 345 J/kg -1.6 K 0 % 0 % 0 % 0 m²/s² 0 0 -0.82 1
21:00 185 J/kg -1.4 K 0 % 0 % 0 % 0 m²/s² 0 0 -0.56 1
22:00 87 J/kg -1.0 K 0 % 0 % 0 % 0 m²/s² 0 0 -0.46 1
23:00 15 J/kg -0.6 K 0 % 0 % 0 % 0 m²/s² 0 0 0.09 1
 06:16     21:34    Daglengte: 15:18 Zondag 01 Aug
00:00 3 J/kg -0.1 K 0 % 0 % 0 % 0 m²/s² 0 0 0.65 2
01:00 21 J/kg -0.5 K 0 % 0 % 0 % 0 m²/s² 0 0 -0.11 3
02:00 16 J/kg -0.8 K 0 % 0 % 0 % 0 m²/s² 0 0 -0.23 3
03:00 0 J/kg -1.1 K 0 % 0 % 0 % 0 m²/s² 0 0 -0.59 2
04:00 30 J/kg -0.9 K 0 % 0 % 0 % 0 m²/s² 0 0 -0.66 2
05:00 60 J/kg -0.8 K 0 % 0 % 0 % 0 m²/s² 0 0 -0.59 2
06:00 109 J/kg -1.3 K 0 % 0 % 0 % 0 m²/s² 0 0 -1.12 3
07:00 108 J/kg -1.3 K 0 % 0 % 0 % 0 m²/s² 0 0 -1.18 3
08:00 73 J/kg -1.3 K 0 % 0 % 0 % 0 m²/s² 0 0 -0.7 3
09:00 135 J/kg -1.3 K 0 % 0 % 0 % 0 m²/s² 0 0 -0.37
10:00 180 J/kg -1.2 K 0 % 0 % 0 % 0 m²/s² 0 0 -0.12
11:00 244 J/kg -1.2 K 0 % 0 % 0 % 0 m²/s² 0 0 0.24
Temp Baro Wind Neerslag
  EWN Forecast EWN WRFDA DWD ICON FMI HIRLAM MET Norway GFS
 06:11     21:39    Daglengte: 15:28 Vandaag
14:00 17.7° 1011.8 hPa 7.8 m/s 0.0 mm 19.2° 1010.8 hPa 8.7 m/s 0.2 mm 18.8° 1011.9 hPa 7.7 m/s -1.7 mm 17.5° 1012.1 hPa 7.6 m/s 0.0 mm 17.9° 1011.7 hPa 10.3 m/s
17:00 19.4° 1011.4 hPa 8.3 m/s 0.0 mm 19.9° 1010.6 hPa 8.1 m/s 0.2 mm 19.6° 1011.6 hPa 7.7 m/s 0.0 mm 19.5° 1011.5 hPa 8.4 m/s 0.0 mm 18.4° 1011.9 hPa 9.8 m/s
20:00 18.1° 1011.4 hPa 7.3 m/s 0.0 mm 18.4° 1010.6 hPa 6.6 m/s 0.2 mm 18.2° 1011.5 hPa 6.1 m/s 0.0 mm 18.2° 1012.0 hPa 8.0 m/s 0.0 mm 17.4° 1011.7 hPa 9.3 m/s
23:00 15.0° 1011.4 hPa 4.4 m/s 0.0 mm 14.0° 1010.6 hPa 4.1 m/s 0.2 mm 14.9° 1011.4 hPa 3.7 m/s 0.0 mm 16.1° 1012.2 hPa 5.0 m/s 0.0 mm 15.3° 1011.5 hPa 6.3 m/s
 06:13     21:38    Daglengte: 15:25 Morgen
02:00 13.8° 1010.4 hPa 3.6 m/s 0.0 mm 12.2° 1009.5 hPa 3.2 m/s 0.2 mm 13.9° 1010.5 hPa 3.5 m/s 0.0 mm 14.3° 1011.0 hPa 4.0 m/s 0.0 mm 14.1° 1010.5 hPa 4.1 m/s
05:00 13.9° 1009.0 hPa 3.1 m/s 0.0 mm 13.0° 1008.0 hPa 2.7 m/s 0.2 mm 14.4° 1009.3 hPa 3.1 m/s 0.0 mm 13.4° 1009.4 hPa 3.0 m/s 0.0 mm 14.3° 1009.2 hPa 3.8 m/s
08:00 15.0° 1007.4 hPa 4.3 m/s 0.0 mm 16.0° 1006.1 hPa 4.7 m/s 0.2 mm 15.5° 1007.8 hPa 4.5 m/s 0.1 mm 14.5° 1008.5 hPa 2.4 m/s 0.0 mm 15.5° 1007.5 hPa 5.3 m/s
11:00 17.3° 1006.1 hPa 5.4 m/s 0.0 mm 20.6° 1004.8 hPa 6.9 m/s 0.2 mm 17.3° 1006.4 hPa 5.6 m/s 0.2 mm 15.5° 1006.8 hPa 3.9 m/s 0.0 mm 17.9° 1006.7 hPa 6.8 m/s
14:00 19.7° 1005.3 hPa 7.6 m/s 0.0 mm 19.8° 1004.0 hPa 6.2 m/s 0.4 mm 20.1° 1005.7 hPa 8.9 m/s 0.1 mm 17.2° 1006.3 hPa 3.7 m/s 0.0 mm 18.2° 1006.2 hPa 8.9 m/s
17:00 19.0° 1004.5 hPa 9.5 m/s 0.0 mm 20.0° 1003.4 hPa 9.1 m/s 3.1 mm 18.9° 1004.8 hPa 10.4 m/s 0.0 mm 18.1° 1006.6 hPa 3.0 m/s 0.0 mm 18.9° 1004.9 hPa 9.0 m/s
20:00 17.6° 1004.7 hPa 9.2 m/s 0.0 mm 18.6° 1002.5 hPa 10.8 m/s 3.2 mm 17.6° 1004.9 hPa 9.4 m/s 0.0 mm 17.5° 1007.3 hPa 3.4 m/s 0.0 mm 17.6° 1004.0 hPa 11.8 m/s
23:00 16.2° 1006.4 hPa 7.5 m/s 0.0 mm 15.5° 1002.6 hPa 8.5 m/s 3.3 mm 16.1° 1005.8 hPa 7.5 m/s 0.1 mm 17.0° 1009.6 hPa 3.5 m/s 0.0 mm 16.3° 1004.1 hPa 12.2 m/s
 06:14     21:36    Daglengte: 15:22 Zaterdag 31 Jul
02:00 16.2° 1007.3 hPa 5.7 m/s 0.0 mm 16.2° 1003.2 hPa 9.0 m/s 3.4 mm 16.3° 1006.4 hPa 5.2 m/s 0.1 mm 16.2° 1009.8 hPa 3.5 m/s 0.0 mm 15.6° 1005.1 hPa 11.0 m/s
05:00 15.5° 1006.5 hPa 7.2 m/s 0.6 mm 15.6° 1003.9 hPa 8.0 m/s 4.2 mm 14.8° 1006.7 hPa 4.1 m/s 0.0 mm 15.6° 1005.7 hPa 10.4 m/s
08:00 15.8° 1007.4 hPa 6.5 m/s 1.3 mm 15.9° 1005.2 hPa 8.8 m/s 5.1 mm 15.5° 1007.4 hPa 5.0 m/s 0.0 mm 15.6° 1006.9 hPa 10.1 m/s
11:00 17.4° 1008.4 hPa 6.4 m/s 0.0 mm 17.1° 1007.1 hPa 7.5 m/s 5.5 mm 17.7° 1008.2 hPa 6.3 m/s 0.2 mm 16.3° 1008.3 hPa 9.3 m/s
14:00 18.6° 1008.7 hPa 7.1 m/s 1.4 mm 19.1° 1007.6 hPa 7.7 m/s 5.6 mm 18.7° 1008.6 hPa 5.8 m/s 0.2 mm 16.9° 1009.4 hPa 7.6 m/s
17:00 19.4° 1008.6 hPa 7.1 m/s 0.7 mm 19.8° 1007.8 hPa 7.9 m/s 5.6 mm 18.9° 1008.6 hPa 5.0 m/s 0.2 mm 18.0° 1009.9 hPa 5.9 m/s
20:00 18.6° 1008.3 hPa 5.4 m/s 0.0 mm 18.9° 1007.2 hPa 5.2 m/s 5.7 mm 18.5° 1008.3 hPa 4.5 m/s 0.0 mm 17.5° 1009.5 hPa 4.9 m/s
23:00 16.0° 1008.7 hPa 4.4 m/s 0.0 mm 15.3° 1007.9 hPa 4.5 m/s 5.8 mm 15.8° 1008.7 hPa 3.3 m/s 0.0 mm 16.0° 1010.1 hPa 5.5 m/s
 06:16     21:34    Daglengte: 15:18 Zondag 01 Aug
02:00 14.8° 1008.4 hPa 4.5 m/s 0.0 mm 14.5° 1007.1 hPa 4.6 m/s 5.8 mm 14.7° 1008.4 hPa 3.4 m/s 0.0 mm 15.7° 1009.7 hPa 4.3 m/s
05:00 14.8° 1007.5 hPa 3.6 m/s 0.0 mm 15.0° 1006.8 hPa 4.6 m/s 5.8 mm 14.8° 1007.7 hPa 3.4 m/s 0.0 mm 15.6° 1009.1 hPa 5.7 m/s
08:00 15.4° 1007.9 hPa 3.9 m/s 0.0 mm 15.1° 1007.1 hPa 5.4 m/s 6.3 mm 15.5° 1008.1 hPa 3.6 m/s 0.0 mm 15.8° 1009.4 hPa 5.6 m/s
11:00 16.5° 1008.1 hPa 5.4 m/s 7.1 mm 16.5° 1008.1 hPa 5.4 m/s 7.1 mm 17.7° 1010.1 hPa 6.6 m/s
14:00 19.4° 1008.1 hPa 5.9 m/s 7.2 mm 19.4° 1008.1 hPa 5.9 m/s 7.2 mm 18.0° 1010.4 hPa 6.3 m/s
17:00 18.1° 1010.8 hPa 5.5 m/s 11.5 mm 18.1° 1010.8 hPa 5.5 m/s 11.5 mm
20:00 17.6° 1010.9 hPa 3.2 m/s 12.7 mm 17.6° 1010.9 hPa 3.2 m/s 12.7 mm
23:00 16.0° 1012.0 hPa 1.3 m/s 13.0 mm 16.0° 1012.0 hPa 1.3 m/s 13.0 mm
 06:17     21:33    Daglengte: 15:16 Maandag 02 Aug
02:00 15.6° 1012.2 hPa 1.1 m/s 13.2 mm 15.6° 1012.2 hPa 1.1 m/s 13.2 mm
05:00 14.7° 1012.1 hPa 2.2 m/s 14.7 mm 14.7° 1012.1 hPa 2.2 m/s 14.7 mm
08:00 14.7° 1012.7 hPa 2.1 m/s 16.1 mm 14.7° 1012.7 hPa 2.1 m/s 16.1 mm
11:00 16.7° 1013.1 hPa 1.3 m/s 17.2 mm 16.7° 1013.1 hPa 1.3 m/s 17.2 mm
14:00 17.1° 1013.3 hPa 2.8 m/s 18.8 mm 17.1° 1013.3 hPa 2.8 m/s 18.8 mm
17:00 17.7° 1013.7 hPa 5.0 m/s 19.4 mm 17.7° 1013.7 hPa 5.0 m/s 19.4 mm
20:00 17.0° 1014.2 hPa 5.1 m/s 19.5 mm 17.0° 1014.2 hPa 5.1 m/s 19.5 mm
23:00 15.6° 1015.3 hPa 4.4 m/s 19.5 mm 15.6° 1015.3 hPa 4.4 m/s 19.5 mm
 06:19     21:31    Daglengte: 15:12 Dinsdag 03 Aug
02:00 15.8° 1015.5 hPa 3.5 m/s 19.5 mm 15.8° 1015.5 hPa 3.5 m/s 19.5 mm
05:00 15.8° 1015.5 hPa 2.5 m/s 19.5 mm 15.8° 1015.5 hPa 2.5 m/s 19.5 mm
08:00 16.0° 1016.0 hPa 2.5 m/s 19.7 mm 16.0° 1016.0 hPa 2.5 m/s 19.7 mm
11:00 16.9° 1016.5 hPa 3.4 m/s 20.2 mm 16.9° 1016.5 hPa 3.4 m/s 20.2 mm
14:00 17.7° 1016.4 hPa 3.9 m/s 20.4 mm 17.7° 1016.4 hPa 3.9 m/s 20.4 mm
17:00 17.4° 1016.2 hPa 4.6 m/s 20.5 mm 17.4° 1016.2 hPa 4.6 m/s 20.5 mm
20:00 16.8° 1016.2 hPa 3.8 m/s 20.5 mm 16.8° 1016.2 hPa 3.8 m/s 20.5 mm
23:00 15.4° 1017.2 hPa 3.3 m/s 20.5 mm 15.4° 1017.2 hPa 3.3 m/s 20.5 mm
 06:20     21:29    Daglengte: 15:09 Woensdag 04 Aug
02:00 15.1° 1017.3 hPa 2.7 m/s 20.5 mm 15.1° 1017.3 hPa 2.7 m/s 20.5 mm
05:00 14.5° 1016.9 hPa 0.5 m/s 20.5 mm 14.5° 1016.9 hPa 0.5 m/s 20.5 mm
08:00 15.0° 1018.0 hPa 0.3 m/s 20.5 mm 15.0° 1018.0 hPa 0.3 m/s 20.5 mm
11:00 17.3° 1018.4 hPa 1.4 m/s 20.5 mm 17.3° 1018.4 hPa 1.4 m/s 20.5 mm
14:00 17.9° 1018.3 hPa 2.6 m/s 20.5 mm 17.9° 1018.3 hPa 2.6 m/s 20.5 mm
17:00 18.2° 1017.9 hPa 2.8 m/s 20.5 mm 18.2° 1017.9 hPa 2.8 m/s 20.5 mm
20:00 17.8° 1017.7 hPa 1.5 m/s 20.5 mm 17.8° 1017.7 hPa 1.5 m/s 20.5 mm
23:00 16.1° 1018.0 hPa 0.7 m/s 20.5 mm 16.1° 1018.0 hPa 0.7 m/s 20.5 mm
 06:22     21:28    Daglengte: 15:06 Donderdag 05 Aug
02:00 15.4° 1018.0 hPa 2.2 m/s 20.5 mm 15.4° 1018.0 hPa 2.2 m/s 20.5 mm
05:00 14.5° 1017.1 hPa 2.7 m/s 20.5 mm 14.5° 1017.1 hPa 2.7 m/s 20.5 mm
08:00 14.8° 1017.2 hPa 3.5 m/s 20.5 mm 14.8° 1017.2 hPa 3.5 m/s 20.5 mm
11:00 17.6° 1017.2 hPa 2.7 m/s 20.5 mm 17.6° 1017.2 hPa 2.7 m/s 20.5 mm
14:00 18.7° 1016.5 hPa 2.7 m/s 20.5 mm 18.7° 1016.5 hPa 2.7 m/s 20.5 mm
20:00 18.3° 1014.8 hPa 1.6 m/s 20.5 mm 18.3° 1014.8 hPa 1.6 m/s 20.5 mm
 06:23     21:26    Daglengte: 15:03 Vrijdag 06 Aug
02:00 16.0° 1014.0 hPa 1.4 m/s 20.5 mm 16.0° 1014.0 hPa 1.4 m/s 20.5 mm
08:00 15.9° 1013.0 hPa 1.7 m/s 20.5 mm 15.9° 1013.0 hPa 1.7 m/s 20.5 mm
14:00 19.8° 1012.1 hPa 0.9 m/s 21.0 mm 19.8° 1012.1 hPa 0.9 m/s 21.0 mm
20:00 18.1° 1010.7 hPa 3.2 m/s 25.2 mm 18.1° 1010.7 hPa 3.2 m/s 25.2 mm
 06:25     21:24    Daglengte: 14:59 Zaterdag 07 Aug
02:00 16.4° 1009.5 hPa 5.2 m/s 27.7 mm 16.4° 1009.5 hPa 5.2 m/s 27.7 mm
08:00 16.1° 1006.5 hPa 6.2 m/s 28.8 mm 16.1° 1006.5 hPa 6.2 m/s 28.8 mm
14:00 17.9° 1006.0 hPa 7.1 m/s 30.0 mm 17.9° 1006.0 hPa 7.1 m/s 30.0 mm
20:00 17.8° 1006.2 hPa 8.5 m/s 34.8 mm 17.8° 1006.2 hPa 8.5 m/s 34.8 mm
 06:26     21:22    Daglengte: 14:56 Zondag 08 Aug
02:00 14.4° 1007.8 hPa 7.0 m/s 34.8 mm 14.4° 1007.8 hPa 7.0 m/s 34.8 mm
08:00 15.5° 1011.8 hPa 5.0 m/s 0.5 mm
14:00 19.0° 1012.3 hPa 5.0 m/s 0.8 mm
20:00 18.3° 1012.6 hPa 4.7 m/s 0.4 mm
 06:28     21:20    Daglengte: 14:52 Maandag 09 Aug
02:00 15.9° 1013.9 hPa 4.3 m/s 0.3 mm
08:00 15.9° 1014.6 hPa 4.5 m/s 0.6 mm
14:00 19.3° 1016.3 hPa 4.8 m/s 0.6 mm
20:00 18.5° 1016.5 hPa 3.9 m/s 0.5 mm
 06:29     21:19    Daglengte: 14:50 Dinsdag 10 Aug
02:00 15.9° 1018.0 hPa 4.0 m/s 0.4 mm
08:00 15.8° 1018.1 hPa 4.4 m/s 0.3 mm
14:00 19.4° 1018.7 hPa 4.7 m/s 0.4 mm
20:00 18.4° 1018.0 hPa 3.8 m/s 0.4 mm
 06:31     21:17    Daglengte: 14:46 Woensdag 11 Aug
02:00 16.1° 1018.5 hPa 3.8 m/s 0.4 mm
08:00 16.3° 1018.1 hPa 3.6 m/s 0.8 mm
14:00 20.0° 1018.4 hPa 3.7 m/s 0.4 mm
20:00 19.0° 1017.4 hPa 2.8 m/s 0.1 mm
 06:32     21:15    Daglengte: 14:43 Donderdag 12 Aug
02:00 16.6° 1017.8 hPa 2.2 m/s 0.3 mm
08:00 16.4° 1017.3 hPa 1.7 m/s 0.8 mm
14:00 19.3° 1017.2 hPa 2.7 m/s 1.2 mm
20:00 18.2° 1016.9 hPa 2.5 m/s 1.1 mm
 06:34     21:13    Daglengte: 14:39 Vrijdag 13 Aug
02:00 15.9° 1017.4 hPa 2.5 m/s 0.6 mm
08:00 16.1° 1017.3 hPa 2.5 m/s 0.2 mm
FMI Hirlam - 7.5 km EWN WRFDA - 12 km DWD ICON - 7 km GFS - 25 km Basiskaart






























































Updatetijd (Europe/Amsterdam) Resolutie Lengte Stap
FMI Hirlam 07:00, 13:00, 19:00, 01:00 7.5 km 49h 1h
EWN WRFDA 10:15, 16:15, 22:15, 04:15 12 km 73h 1h
DWD ICON 06:15, 12:15, 18:15, 00:15 7 km 75h 1h
GFS 08:15, 14:15, 20:15, 02:15 25 km 237h 3h
30+ mm
25-30 mm
20-25 mm
15-20 mm
10-15 mm
6-10 mm
4-6 mm
2-4 mm
1-2 mm
0.5-1 mm
0.2-0.5 mm
0.1-0.2 mm
30+ mm
25-30 mm
20-25 mm
15-20 mm
10-15 mm
6-10 mm
4-6 mm
2-4 mm
1-2 mm
0.5-1 mm
0.2-0.5 mm
0.1-0.2 mm
Sneeuwval
Natte sneeuw
Hagel
Vorst
30+ mm
25-30 mm
20-25 mm
15-20 mm
10-15 mm
6-10 mm
4-6 mm
2-4 mm
1-2 mm
0.5-1 mm
0.2-0.5 mm
0.1-0.2 mm
Sneeuwval
Natte sneeuw
Hagel
Vorst
Onweer
50 mm
40 mm
30 mm
26 mm
22 mm
18 mm
14 mm
10 mm
9 mm
8 mm
7 mm
6 mm
5 mm
4.5 mm
4 mm
3.5 mm
3 mm
2.5 mm
2 mm
1.5 mm
1 mm
0.8 mm
0.6 mm
0.4 mm
0.2 mm
0.05 mm
35°
30°
25°
20°
15°
10°
-5°
-10°
-15°
-20°
-25°
-30°
-35°
33> m/s
29 m/s
25 m/s
21 m/s
17 m/s
14 m/s
11 m/s
8 m/s
5 m/s
3 m/s
0 m/s
2600 J/kg
2400 J/kg
2200 J/kg
2000 J/kg
1800 J/kg
1600 J/kg
1400 J/kg
1200 J/kg
1000 J/kg
800 J/kg
600 J/kg
400 J/kg
200 J/kg
70 dBZ
65 dBZ
60 dBZ
55 dBZ
50 dBZ
45 dBZ
40 dBZ
35 dBZ
30 dBZ
25 dBZ
20 dBZ
15 dBZ
10 dBZ
5 dBZ
-1 K
-2 K
-3 K
-4 K
-5 K
-6 K
-7 K
-8 K
-9 K
950 m²/s²
900 m²/s²
850 m²/s²
800 m²/s²
750 m²/s²
700 m²/s²
650 m²/s²
600 m²/s²
550 m²/s²
500 m²/s²
450 m²/s²
400 m²/s²
350 m²/s²
300 m²/s²
250 m²/s²
200 m²/s²
150 m²/s²
100 m²/s²
46 m/s
44 m/s
42 m/s
40 m/s
38 m/s
36 m/s
34 m/s
32 m/s
30 m/s
28 m/s
26 m/s
24 m/s
22 m/s
20 m/s
16 m/s
12 m/s
8 m/s
4 m/s
30 m/s
28 m/s
26 m/s
24 m/s
22 m/s
20 m/s
18 m/s
16 m/s
14 m/s
12 m/s
10 m/s
8 m/s
6 m/s
4 m/s
2 m/s
3.0
2.8
2.6
2.4
2.2
2.0
1.8
1.6
1.4
1.2
1.0
0.8
0.6
0.4
0.2
15
14
13
12
11
10
9
8
7
6
5
4
3
2
1
90%
80%
70%
60%
50%
40%
30%
20%
10%
42
40
38
36
34
32
30
28
26
24
22
20
18
16
14
12
90+ cm
80-90 cm
70-80 cm
60-70 cm
50-60 cm
40-50 cm
30-40 cm
20-30 cm
10-20 cm
1-10 cm
Sneeuwval
Natte sneeuw
Regen
>120 mm
115 mm
110 mm
105 mm
100 mm
95 mm
90 mm
85 mm
80 mm
75 mm
70 mm
65 mm
60 mm
55 mm
50 mm
45 mm
45 mm
40 mm
35 mm
30 mm
25 mm
20 mm
15 mm
10 mm
5 mm
0.1 mm
960 hPa
880 hPa
800 hPa
720 hPa
640 hPa
560 hPa
584 gpdm
568 gpdm
552 gpdm
536 gpdm
520 gpdm
504 gpdm
488 gpdm
Extreem zwaar Noodweer Kans op onweer
15% 15% 5% 50% 15%

Dag




Kaart